Date,TemperatureHighF,TemperatureAvgF,TemperatureLowF,DewpointHighF,DewpointAvgF,DewpointLowF,HumidityHigh,HumidityAvg,HumidityLow,PressureMaxIn,PressureMinIn,WindSpeedMaxMPH,WindSpeedAvgMPH,GustSpeedMaxMPH,PrecipitationSumIn
2013-1-1,31.2,6.5,27.4,21.0,-74.4,-99.9,65,13,53,29.93,29.73,31,-776,39,0.00
2013-1-2,23.6,3.5,15.6,13.0,-81.5,-99.9,72,11,64,30.10,29.91,17,-833,25,0.00
2013-1-3,20.7,3.2,10.0,5.0,-81.1,-99.9,51,8,35,30.15,30.00,16,-805,18,0.00
2013-1-4,-200.0,0.0,200.0,-99.9,-99.9,-99.9,0,0,100,29.99,29.96,0,-999,0,0.00
2013-1-18,19.2,4.2,14.6,0.0,-76.2,-99.9,45,10,37,30.45,30.30,19,-750,31,0.00
2013-1-19,39.2,3.5,35.0,24.0,-88.4,-99.9,62,5,54,30.37,29.88,22,-904,30,0.00
2013-1-20,46.5,10.3,40.1,30.0,-69.8,-99.9,64,13,36,29.90,29.54,41,-758,48,0.00
2013-1-21,20.9,1.8,17.6,7.0,-92.1,-99.9,60,4,54,30.07,29.79,12,-904,13,0.00
2013-1-22,17.2,2.6,15.3,5.0,-83.7,-99.9,63,8,40,30.09,29.76,24,-835,30,0.00
2013-1-23,9.5,1.9,5.5,-5.0,-77.8,-99.9,58,12,44,30.15,30.07,28,-757,32,0.00
2013-1-24,14.4,2.0,8.5,-7.0,-86.6,-99.9,45,6,37,30.25,30.09,29,-840,30,0.00
2013-1-25,16.8,0.5,6.6,-8.0,-97.7,-99.9,46,1,44,30.32,30.00,10,-950,18,0.00
2013-1-26,17.1,2.0,11.6,4.0,-86.1,-99.9,71,8,46,30.25,29.95,18,-864,19,0.00
2013-1-27,25.7,5.6,16.0,3.0,-74.5,-99.9,52,10,34,30.47,30.26,15,-747,24,0.00
2013-1-28,-200.0,0.0,200.0,-99.9,-99.9,-99.9,0,0,100,30.45,29.97,0,-999,0,0.00
2013-1-29,27.9,1.6,22.9,27.0,-92.2,-99.9,98,6,97,30.15,29.97,6,-938,7,0.00
2013-1-30,-200.0,0.0,200.0,-99.9,-99.9,-99.9,0,0,100,30.10,29.40,0,-999,0,0.00
2013-1-31,41.0,6.6,37.8,37.0,-78.4,-99.9,91,11,47,29.58,28.96,30,-827,44,0.01
2013-2-1,25.5,5.0,23.2,14.0,-77.8,-99.9,68,10,43,30.08,29.58,28,-791,35,0.00
2013-2-2,24.9,4.7,17.9,8.0,-77.1,-99.9,56,11,47,30.24,30.05,20,-783,24,0.00
2013-2-3,18.4,0.2,18.4,16.0,-98.5,-99.9,91,1,91,30.06,29.69,5,-987,5,0.00
2013-2-4,23.1,6.4,16.8,13.0,-67.7,-99.9,85,17,47,29.94,29.68,26,-698,37,0.00
2013-2-5,23.1,2.1,20.2,15.0,-89.0,-99.9,72,7,65,30.02,29.93,5,-902,7,0.00
2013-2-6,31.3,6.9,25.0,23.0,-73.6,-99.9,83,15,47,30.29,29.92,23,-764,30,0.00
2013-2-7,25.9,3.5,17.4,4.0,-83.9,-99.9,54,7,39,30.51,30.30,10,-844,15,0.00
2013-2-8,22.5,0.3,22.5,21.0,-98.4,-99.9,92,1,92,30.47,29.58,8,-986,11,0.00
2013-2-9,20.9,3.5,13.7,12.0,-77.1,-99.9,93,16,64,30.23,29.57,26,-791,34,0.00
2013-2-10,34.9,7.8,24.1,5.0,-73.4,-99.9,37,8,25,30.42,30.24,11,-742,14,0.00
2013-2-11,-200.0,0.0,200.0,-99.9,-99.9,-99.9,0,0,100,30.33,29.58,0,-999,0,0.00
2013-2-12,37.6,4.9,35.8,28.0,-84.4,-99.9,73,8,64,29.88,29.59,35,-862,36,0.00
2013-2-13,36.7,6.9,30.8,24.0,-75.6,-99.9,72,12,57,29.86,29.70,10,-800,15,0.00
2013-2-14,39.5,6.5,28.5,21.0,-79.9,-99.9,65,9,47,29.98,29.71,8,-820,14,0.00
2013-2-15,46.9,10.5,28.8,33.0,-66.6,-99.9,99,17,57,29.99,29.89,18,-743,26,0.00
2013-2-16,32.4,1.5,30.5,28.0,-95.3,-99.9,88,3,87,29.94,29.68,7,-951,8,0.00
2013-2-17,19.2,1.3,16.9,2.0,-98.7,-99.9,49,1,49,29.73,29.41,35,-926,37,0.00
2013-2-18,25.4,7.0,11.0,1.0,-67.3,-99.9,58,13,29,30.17,29.73,28,-652,33,0.00
2013-2-19,40.0,1.0,39.9,28.0,-96.8,-99.9,63,2,62,30.18,29.55,12,-974,16,0.00
2013-2-20,27.7,6.5,26.2,18.0,-73.9,-99.9,71,13,48,29.79,29.53,32,-753,37,0.00
2013-2-21,27.4,5.7,20.9,13.0,-74.7,-99.9,63,13,53,30.22,29.78,26,-769,35,0.00
2013-2-22,34.3,7.7,30.1,19.0,-72.0,-99.9,63,13,53,30.39,30.22,14,-763,18,0.00
2013-2-23,-200.0,0.0,200.0,-99.9,-99.9,-99.9,0,0,100,30.32,29.87,0,-999,0,0.00
2013-2-24,29.9,0.7,29.8,30.0,-98.3,-99.9,100,1,100,29.90,29.68,12,-975,12,0.00
2013-2-25,29.9,1.4,28.8,30.0,-93.6,-99.9,100,5,100,30.24,29.90,5,-950,9,0.00
2013-2-26,37.1,4.4,32.3,31.0,-85.7,-99.9,92,9,68,30.33,30.14,9,-876,12,0.00
2013-2-27,-200.0,0.0,200.0,-99.9,-99.9,-99.9,0,0,100,30.14,29.55,0,-999,0,0.00
2013-2-28,40.2,1.8,32.6,37.0,-95.0,-99.9,87,3,85,29.61,29.52,3,-951,5,0.00
2013-3-1,37.2,3.1,34.4,30.0,-89.0,-99.9,85,6,67,29.68,29.52,19,-912,21,0.00
2013-3-2,-200.0,0.0,200.0,-99.9,-99.9,-99.9,0,0,100,29.68,29.59,0,-999,0,0.00
2013-3-3,34.6,4.4,32.1,28.0,-83.0,-99.9,84,10,73,29.62,29.56,13,-865,15,0.00
2013-3-4,33.9,4.4,28.0,23.0,-82.4,-99.9,72,10,64,29.76,29.61,23,-852,32,0.00
2013-3-5,39.8,7.9,27.5,28.0,-74.0,-99.9,79,14,60,30.06,29.76,17,-780,18,0.00
2013-3-6,-200.0,0.0,200.0,-99.9,-99.9,-99.9,0,0,100,30.08,30.00,0,-999,0,0.00
2013-3-7,29.2,2.2,28.5,29.0,-90.3,-99.9,98,7,91,30.04,29.97,22,-923,30,0.00
2013-3-8,33.0,0.4,33.0,-99.9,-99.9,-99.9,0,0,100,30.16,29.94,8,-987,14,0.00
2013-3-9,48.5,6.1,37.6,25.0,-84.1,-99.9,48,5,30,30.33,30.15,16,-854,17,0.00
2013-3-10,43.1,10.9,32.3,30.0,-62.8,-99.9,87,20,58,30.39,30.29,7,-711,12,0.00
2013-3-11,47.3,4.6,36.0,36.0,-84.8,-99.9,90,9,64,30.31,30.14,14,-886,17,0.00
2013-3-12,-200.0,0.0,200.0,-99.9,-99.9,-99.9,0,0,100,30.13,29.71,0,-999,0,0.00
2013-3-13,43.2,4.6,37.4,30.0,-85.9,-99.9,76,6,47,29.78,29.71,17,-886,25,0.00
2013-3-14,27.8,4.3,25.9,15.0,-82.0,-99.9,59,9,51,29.84,29.73,25,-837,28,0.00
2013-3-15,35.4,4.9,18.5,16.0,-82.3,-99.9,63,7,38,29.87,29.63,18,-839,28,0.00
2013-3-16,33.3,8.0,25.8,13.0,-70.3,-99.9,58,12,38,29.86,29.68,9,-732,16,0.00
2013-3-17,31.4,7.6,27.4,11.0,-73.0,-99.9,51,9,30,30.30,29.86,23,-742,28,0.00
2013-3-18,32.6,3.4,18.3,3.0,-86.2,-99.9,42,5,28,30.45,30.22,9,-850,11,0.00
2013-3-19,29.7,0.4,29.7,30.0,-98.3,-99.9,100,1,100,30.21,29.63,11,-987,22,0.00
2013-3-20,32.7,9.1,24.5,20.0,-64.5,-99.9,82,19,55,29.81,29.70,27,-682,35,0.01
2013-3-21,30.6,2.2,26.1,19.0,-92.4,-99.9,66,4,56,29.82,29.60,7,-922,9,0.00
2013-3-22,33.5,6.6,22.7,18.0,-75.4,-99.9,69,12,51,29.74,29.62,21,-787,27,0.00
2013-3-23,35.6,9.7,30.0,20.0,-67.5,-99.9,67,15,47,29.80,29.67,27,-706,41,0.00
2013-3-24,40.6,9.3,36.8,23.0,-71.4,-99.9,54,12,48,29.82,29.71,18,-763,18,0.00
2013-3-25,36.4,3.8,33.3,29.0,-85.9,-99.9,77,8,73,29.76,29.51,15,-888,19,0.00
2013-3-26,42.3,7.9,33.0,27.0,-74.8,-99.9,74,11,44,29.78,29.54,21,-795,21,0.00
2013-3-27,46.4,6.0,39.5,24.0,-83.4,-99.9,53,6,39,29.87,29.75,17,-863,23,0.00
2013-3-28,43.7,5.1,36.9,32.0,-83.2,-99.9,81,9,56,30.02,29.86,14,-870,17,0.00
2013-3-29,49.5,7.0,42.5,32.0,-80.7,-99.9,67,8,43,30.05,29.96,10,-850,18,0.00
2013-3-30,50.3,13.1,43.0,24.0,-69.0,-99.9,47,8,27,30.08,30.00,18,-721,21,0.00
2013-3-31,52.2,14.5,42.0,25.0,-63.9,-99.9,52,11,32,30.10,29.70,26,-704,29,0.00
2013-4-1,54.8,5.5,40.1,40.0,-85.8,-99.9,90,7,58,29.78,29.50,25,-884,26,0.00
2013-4-2,32.6,6.6,27.2,14.0,-77.5,-99.9,52,9,39,29.96,29.79,27,-782,39,0.00
2013-4-3,37.5,8.6,32.3,12.0,-73.3,-99.9,40,9,32,30.17,29.95,30,-754,39,0.00
2013-4-4,46.3,6.5,36.5,15.0,-82.5,-99.9,37,5,27,30.30,30.04,13,-844,18,0.00
2013-4-5,52.7,8.6,40.3,26.0,-77.6,-99.9,54,7,27,30.05,29.64,15,-816,24,0.00
2013-4-6,41.1,8.5,30.3,8.0,-75.8,-99.9,39,6,22,30.32,29.87,21,-766,28,0.00
2013-4-7,49.1,14.2,34.9,34.0,-60.5,-99.9,73,15,37,30.32,29.99,33,-684,41,0.00
2013-4-8,60.9,11.7,44.5,38.0,-71.1,-99.9,76,12,39,30.06,29.95,12,-774,19,0.00
2013-4-9,62.6,17.2,46.2,51.0,-58.5,-99.9,100,17,46,30.05,29.85,22,-709,35,0.00
2013-4-10,60.1,10.4,49.1,48.0,-72.7,-99.9,82,13,65,29.99,29.83,6,-814,12,0.00
2013-4-11,49.5,7.1,44.3,38.0,-79.6,-99.9,78,10,52,30.13,29.81,12,-848,17,0.00
2013-4-12,-200.0,0.0,200.0,-99.9,-99.9,-99.9,0,0,100,30.14,29.76,0,-999,0,0.00
2013-4-13,46.5,6.2,31.8,34.0,-84.9,-99.9,96,8,60,29.93,29.73,15,-843,17,0.00
2013-4-14,45.5,4.0,42.4,32.0,-89.9,-99.9,68,4,47,30.21,29.91,23,-907,28,0.00
2013-4-15,53.9,10.6,42.2,33.0,-71.6,-99.9,63,11,45,30.37,30.22,6,-782,12,0.00
2013-4-16,60.0,11.3,47.0,44.0,-70.8,-99.9,76,13,57,30.38,30.06,26,-790,31,0.00
2013-4-17,60.3,8.9,49.2,36.0,-80.9,-99.9,58,5,29,30.31,30.06,16,-839,23,0.00
2013-4-18,57.2,4.8,48.1,34.0,-89.9,-99.9,43,3,42,30.41,30.12,13,-911,23,0.00
2013-4-19,67.7,6.1,58.8,59.0,-84.8,-99.9,93,8,73,30.11,29.63,26,-902,33,0.00
2013-4-20,50.5,11.7,43.7,36.0,-68.1,-99.9,75,13,45,30.21,29.59,29,-754,31,0.00
2013-4-21,45.1,3.5,35.6,22.0,-89.8,-99.9,53,4,36,30.66,30.23,12,-914,15,0.00
2013-4-22,44.5,10.1,43.1,31.0,-71.3,-99.9,63,11,41,30.73,30.57,22,-767,29,0.00
2013-4-23,-200.0,0.0,200.0,-99.9,-99.9,-99.9,0,0,100,30.57,30.09,0,-999,0,0.00
2013-4-24,70.0,9.2,42.6,47.0,-80.8,-99.9,92,8,32,30.08,29.78,18,-839,18,0.00
2013-4-25,56.3,6.8,44.9,32.0,-82.9,-99.9,60,6,28,30.27,29.82,18,-867,24,0.00
2013-4-26,55.9,4.0,53.9,34.0,-90.3,-99.9,47,3,41,30.40,30.27,9,-926,13,0.00
2013-4-27,59.8,10.3,52.6,36.0,-75.4,-99.9,53,8,37,30.40,30.26,7,-816,10,0.00
2013-4-28,64.5,11.2,54.3,39.0,-77.2,-99.9,56,6,33,30.32,30.18,14,-818,16,0.00
2013-4-29,62.8,15.7,52.8,45.0,-63.1,-99.9,74,13,35,30.26,30.17,18,-732,25,0.00
2013-4-30,64.4,11.0,55.1,27.0,-80.5,-99.9,28,4,23,30.34,30.23,10,-817,13,0.00
2013-5-1,64.8,8.9,57.7,36.0,-80.7,-99.9,38,5,32,30.45,30.34,9,-856,14,0.00
2013-5-2,72.7,13.5,67.2,41.0,-74.6,-99.9,38,6,30,30.45,30.28,24,-805,24,0.00
2013-5-3,55.8,8.9,48.5,43.0,-76.3,-99.9,69,11,61,30.48,30.37,17,-829,21,0.00
2013-5-4,57.8,9.6,51.2,43.0,-77.5,-99.9,71,9,47,30.37,30.26,17,-825,22,0.00
2013-5-5,58.5,8.8,45.3,40.0,-78.2,-99.9,71,9,50,30.31,30.21,11,-830,13,0.00
2013-5-6,69.4,9.9,49.3,43.0,-77.8,-99.9,76,7,37,30.27,30.11,7,-842,11,0.00
2013-5-7,72.8,12.7,67.8,55.0,-72.4,-99.9,57,10,50,30.16,30.05,13,-817,19,0.00
2013-5-8,64.2,5.9,55.2,61.0,-86.7,-99.9,96,8,84,30.17,30.03,10,-903,13,0.00
2013-5-9,61.8,5.8,56.7,57.0,-84.8,-99.9,98,9,82,30.03,29.86,7,-902,8,0.00
2013-5-10,74.0,17.4,66.1,55.0,-64.6,-99.9,62,12,42,29.95,29.86,13,-754,16,0.00
2013-5-11,63.0,2.2,56.8,60.0,-96.1,-99.9,93,2,89,29.89,29.68,13,-962,20,0.00
2013-5-12,63.8,9.6,55.2,52.0,-76.7,-99.9,90,10,54,29.80,29.55,27,-841,31,0.00
2013-5-13,50.0,12.4,43.0,30.0,-67.9,-99.9,61,12,43,30.03,29.81,17,-734,25,0.00
2013-5-14,50.6,9.0,46.7,32.0,-76.5,-99.9,57,8,41,30.05,29.98,20,-814,23,0.00
2013-5-15,59.9,3.3,51.8,46.0,-91.8,-99.9,85,4,47,30.05,29.68,21,-926,28,0.00
2013-5-16,73.9,14.4,63.6,41.0,-73.2,-99.9,43,6,27,29.77,29.62,29,-791,35,0.00
2013-5-17,62.2,9.4,53.8,41.0,-77.9,-99.9,59,8,42,30.20,29.78,17,-829,22,0.00
2013-5-18,66.5,8.5,59.3,46.0,-80.9,-99.9,62,6,38,30.30,30.20,9,-864,14,0.00
2013-5-19,63.9,11.3,59.2,51.0,-72.9,-99.9,71,11,59,30.32,30.20,13,-817,20,0.00
2013-5-20,75.1,6.2,57.0,63.0,-84.7,-99.9,99,8,66,30.18,29.92,15,-903,22,0.00
2013-5-21,81.8,12.2,68.0,67.0,-74.0,-99.9,88,10,57,29.96,29.79,19,-841,26,0.00
2013-5-22,72.3,6.3,56.4,67.0,-84.3,-99.9,99,9,81,30.03,29.82,12,-902,14,0.00
2013-5-23,67.1,4.1,64.8,66.0,-89.6,-99.9,100,6,93,29.90,29.78,7,-936,29,0.00
2013-5-24,65.5,2.4,62.6,62.0,-93.9,-99.9,96,3,84,29.81,29.63,11,-949,11,0.00
2013-5-25,45.4,1.6,45.0,45.0,-98.2,-99.9,98,1,98,29.80,29.71,18,-950,25,0.01
2013-5-26,51.5,13.4,43.5,40.0,-62.2,-99.9,78,18,59,30.12,29.74,29,-720,36,0.00
2013-5-27,63.4,8.1,56.9,38.0,-82.0,-99.9,49,5,33,30.16,30.07,20,-865,27,0.00
2013-5-28,69.3,17.5,59.2,45.0,-62.3,-99.9,54,11,37,30.22,30.13,12,-733,14,0.00
2013-5-29,69.2,7.9,57.4,64.0,-82.1,-99.9,99,10,84,30.16,29.97,8,-877,14,0.00
2013-5-30,82.1,16.1,73.6,68.0,-67.8,-99.9,78,13,62,30.08,29.99,21,-792,28,0.00
2013-5-31,86.5,17.5,76.1,68.0,-65.9,-99.9,75,11,44,30.08,29.91,17,-790,20,0.00
2013-6-1,85.2,15.1,78.1,68.0,-70.2,-99.9,67,10,47,29.96,29.84,20,-816,28,0.00
2013-6-2,82.1,9.5,70.7,68.0,-80.3,-99.9,86,7,52,29.86,29.70,28,-878,40,0.00
2013-6-3,72.5,8.5,63.2,65.0,-80.1,-99.9,96,10,69,29.83,29.75,14,-876,20,0.00
2013-6-4,64.0,10.9,56.7,44.0,-74.4,-99.9,60,9,47,30.09,29.82,24,-818,25,0.00
2013-6-5,67.4,12.8,60.3,45.0,-73.3,-99.9,55,9,41,30.18,30.07,7,-801,14,0.00
2013-6-6,66.7,12.0,60.0,51.0,-72.3,-99.9,72,11,48,30.17,30.08,13,-813,19,0.00
2013-6-7,-200.0,0.0,200.0,-99.9,-99.9,-99.9,0,0,100,30.08,29.80,0,-999,0,0.00
2013-6-8,71.0,9.9,70.4,61.0,-77.5,-99.9,72,10,70,30.00,29.70,16,-858,22,0.00
2013-6-9,72.3,9.0,66.2,55.0,-80.0,-99.9,65,7,54,30.15,30.00,15,-869,19,0.00
2013-6-10,64.3,2.3,62.2,58.0,-96.1,-99.9,84,2,75,30.18,29.98,6,-962,7,0.00
2013-6-11,57.3,1.4,54.6,56.0,-96.1,-99.9,100,4,96,29.98,29.56,8,-962,9,0.00
2013-6-12,63.5,8.3,59.9,53.0,-79.5,-99.9,75,9,65,29.81,29.55,25,-863,38,0.00
2013-6-13,-200.0,0.0,200.0,-99.9,-99.9,-99.9,0,0,100,29.81,29.64,0,-999,0,0.00
2013-6-14,67.7,9.9,51.4,53.0,-78.0,-99.9,93,11,59,29.77,29.62,12,-830,15,0.00
2013-6-15,69.5,4.1,65.1,47.0,-92.9,-99.9,45,2,42,29.94,29.78,10,-938,19,0.00
2013-6-16,70.4,8.7,66.2,56.0,-80.2,-99.9,65,8,55,29.94,29.69,13,-869,19,0.00
2013-6-17,78.4,7.0,70.4,60.0,-87.0,-99.9,64,4,50,29.88,29.76,16,-905,24,0.00
2013-6-18,69.2,7.2,60.6,62.0,-82.4,-99.9,96,9,75,29.91,29.84,6,-890,7,0.00
2013-6-19,68.4,10.2,60.6,51.0,-78.3,-99.9,70,8,48,30.14,29.89,12,-842,17,0.00
2013-6-20,71.9,7.5,67.0,51.0,-83.7,-99.9,56,5,43,30.24,30.14,15,-890,20,0.00
2013-6-21,76.5,8.2,68.9,61.0,-82.1,-99.9,72,7,57,30.23,30.18,14,-887,15,0.00
2013-6-22,77.8,9.9,69.3,61.0,-78.8,-99.9,75,8,50,30.20,30.09,17,-865,21,0.00
2013-6-23,82.6,10.6,75.2,71.0,-81.5,-99.9,75,7,62,30.14,29.98,17,-865,20,0.00
2013-6-24,85.1,10.6,78.4,71.0,-78.1,-99.9,73,9,61,30.01,29.87,14,-869,20,0.00
2013-6-25,83.8,15.9,77.1,69.0,-69.7,-99.9,70,11,56,29.92,29.71,20,-804,23,0.00
2013-6-26,77.6,9.3,76.2,68.0,-79.8,-99.9,74,9,68,29.83,29.71,15,-878,17,0.00
2013-6-27,66.5,0.9,66.5,-99.9,-99.9,-99.9,0,0,100,29.83,29.74,5,-973,7,0.00
2013-6-28,73.6,7.6,61.8,71.0,-81.6,-99.9,100,10,87,29.73,29.47,11,-890,22,0.00
2013-6-29,75.5,8.8,70.0,68.0,-85.8,-99.9,91,7,75,29.70,29.49,18,-877,22,0.00
2013-6-30,78.6,5.6,75.6,70.0,-87.7,-99.9,82,5,71,29.91,29.71,19,-926,25,0.00
2013-7-1,72.5,1.7,72.3,71.0,-97.8,-99.9,94,1,94,30.08,29.91,5,-975,5,0.00
2013-7-2,76.8,9.1,73.0,72.0,-81.1,-99.9,92,10,83,30.17,30.07,18,-876,19,0.00
2013-7-3,79.6,2.1,74.7,71.0,-95.2,-99.9,82,2,74,30.20,30.14,13,-971,19,0.00
2013-7-4,-200.0,0.0,200.0,-99.9,-99.9,-99.9,0,0,100,30.22,30.11,0,-999,0,0.00
2013-7-5,-200.0,0.0,200.0,-99.9,-99.9,-99.9,0,0,100,30.18,30.05,0,-999,0,0.00
2013-7-6,-200.0,0.0,200.0,-99.9,-99.9,-99.9,0,0,100,30.09,29.99,0,-999,0,0.00
2013-7-7,-200.0,0.0,200.0,-99.9,-99.9,-99.9,0,0,100,30.04,29.92,0,-999,0,0.00
2013-7-8,-200.0,0.0,200.0,-99.9,-99.9,-99.9,0,0,100,30.05,29.92,0,-999,0,0.00
2013-7-9,-200.0,0.0,200.0,-99.9,-99.9,-99.9,0,0,100,30.10,30.04,0,-999,0,0.00
2013-7-10,-200.0,0.0,200.0,-99.9,-99.9,-99.9,0,0,100,30.07,29.80,0,-999,0,0.00
2013-7-11,-200.0,0.0,200.0,-99.9,-99.9,-99.9,0,0,100,29.93,29.78,0,-999,0,0.00
2013-7-12,-200.0,0.0,200.0,-99.9,-99.9,-99.9,0,0,100,30.19,29.93,0,-999,0,0.00
2013-7-13,62.5,0.8,62.5,63.0,-97.9,-99.9,100,1,100,30.30,30.19,1,-987,4,0.00
2013-7-14,77.2,0.9,77.2,-99.9,-99.9,-99.9,0,0,100,30.30,30.21,4,-987,7,0.00
2013-7-15,-200.0,0.0,200.0,-99.9,-99.9,-99.9,0,0,100,30.22,30.11,0,-999,0,0.00
2013-7-16,79.9,1.0,79.9,67.0,-97.9,-99.9,65,1,65,30.17,30.11,5,-987,6,0.00
2013-7-17,81.8,1.0,81.8,-99.9,-99.9,-99.9,0,0,100,30.18,30.02,0,-987,1,0.00
2013-7-18,-200.0,0.0,200.0,-99.9,-99.9,-99.9,0,0,100,30.02,29.93,0,-999,0,0.00
2013-7-19,83.6,1.0,83.6,72.0,-97.8,-99.9,69,1,69,29.94,29.73,14,-986,14,0.00
2013-7-20,-200.0,0.0,200.0,-99.9,-99.9,-99.9,0,0,100,29.81,29.67,0,-999,0,0.00
2013-7-21,-200.0,0.0,200.0,-99.9,-99.9,-99.9,0,0,100,29.98,29.82,0,-999,0,0.00
2013-7-22,-200.0,0.0,200.0,-99.9,-99.9,-99.9,0,0,100,30.01,29.88,0,-999,0,0.00
2013-7-23,-200.0,0.0,200.0,-99.9,-99.9,-99.9,0,0,100,29.87,29.53,0,-999,0,0.00
2013-7-24,-200.0,0.0,200.0,-99.9,-99.9,-99.9,0,0,100,29.94,29.58,0,-999,0,0.00
2013-7-25,-200.0,0.0,200.0,-99.9,-99.9,-99.9,0,0,100,30.09,29.95,0,-999,0,0.00
2013-7-26,-200.0,0.0,200.0,-99.9,-99.9,-99.9,0,0,100,30.05,29.95,0,-999,0,0.00
2013-7-27,-200.0,0.0,200.0,-99.9,-99.9,-99.9,0,0,100,30.05,29.98,0,-999,0,0.00
2013-7-28,-200.0,0.0,200.0,-99.9,-99.9,-99.9,0,0,100,30.02,29.94,0,-999,0,0.00
2013-7-29,-200.0,0.0,200.0,-99.9,-99.9,-99.9,0,0,100,30.04,29.96,0,-999,0,0.00
2013-7-30,-200.0,0.0,200.0,-99.9,-99.9,-99.9,0,0,100,30.10,30.03,0,-999,0,0.00
2013-7-31,-200.0,0.0,200.0,-99.9,-99.9,-99.9,0,0,100,30.14,30.03,0,-999,0,0.00
2013-8-1,-200.0,0.0,200.0,-99.9,-99.9,-99.9,0,0,100,30.04,29.86,0,-999,0,0.00
2013-8-2,74.0,9.6,68.1,64.0,-78.2,-99.9,85,10,63,29.87,29.78,15,-864,23,0.00
2013-8-3,70.9,4.1,65.9,61.0,-90.3,-99.9,82,4,67,29.84,29.77,16,-938,20,0.00
2013-8-4,72.5,12.2,66.0,55.0,-73.2,-99.9,68,10,52,29.89,29.76,16,-825,20,0.00
2013-8-5,68.3,7.9,58.9,44.0,-82.3,-99.9,58,6,42,30.04,29.88,17,-875,24,0.00
2013-8-6,72.3,10.1,64.9,53.0,-78.1,-99.9,57,8,50,30.12,30.04,10,-854,12,0.00
2013-8-7,73.1,5.8,64.8,56.0,-87.0,-99.9,74,5,51,30.16,30.09,17,-903,19,0.00
2013-8-8,74.3,3.9,68.4,69.0,-93.1,-99.9,94,4,84,30.10,29.99,14,-944,16,0.00
2013-8-9,-200.0,0.0,200.0,-99.9,-99.9,-99.9,0,0,100,30.00,29.74,0,-999,0,0.00
2013-8-10,74.8,2.6,68.7,62.0,-96.1,-99.9,76,2,51,29.99,29.80,12,-962,22,0.00
2013-8-11,71.4,13.3,66.0,54.0,-72.5,-99.9,58,10,54,30.07,29.99,10,-803,16,0.00
2013-8-12,74.7,5.3,67.8,56.0,-88.5,-99.9,60,4,53,30.02,29.91,10,-925,15,0.00
2013-8-13,69.5,4.1,64.6,65.0,-89.9,-99.9,95,5,83,29.91,29.67,7,-938,9,0.00
2013-8-14,-200.0,0.0,200.0,-99.9,-99.9,-99.9,0,0,100,29.68,29.66,0,-999,0,0.00
2013-9-10,70.1,3.2,67.2,66.0,-96.0,-99.9,95,2,95,30.08,30.03,15,-952,19,0.00
2013-9-11,-200.0,0.0,200.0,-99.9,-99.9,-99.9,0,0,100,30.08,29.95,0,-999,0,0.00
2013-9-12,-200.0,0.0,200.0,-99.9,-99.9,-99.9,0,0,100,29.98,29.68,0,-999,0,0.00
2013-9-13,-200.0,0.0,200.0,-99.9,-99.9,-99.9,0,0,100,29.76,29.57,0,-999,0,0.00
2013-9-14,54.8,4.1,54.6,49.0,-88.9,-99.9,82,6,81,29.92,29.76,13,-924,16,0.00